Mitchell, SD

5:46 AM CDT on October 01, 2016 (GMT -0500)
Mitchell Municipal

Weather History for KMHE - July, 2012

Change the Weather History Date:

Monday, July 30, 2012

  Actual Average Record
Temperature  
Mean Temperature 81 °F 74 °F  
Max Temperature 94 °F 86 °F 106 °F (1955)
Min Temperature 67 °F 63 °F 39 °F (1971)
Degree Days  
Heating Degree Days 0 0  
Month to date heating degree days 0 0  
Since 1 June heating degree days 14 35  
Since 1 July heating degree days 0 0  
Cooling Degree Days 16 9  
Month to date cooling degree days 512 295  
Year to date cooling degree days 892 505  
Since 1 June cooling degree days 793 465  
Growing Degree Days 31 (Base 50)    
Moisture  
Dew Point 64 °F    
Average Humidity 60    
Maximum Humidity 93    
Minimum Humidity 30    
Precipitation  
Precipitation 0.00 in 0.10 in 2.52 in (1941)
Month to date precipitation 0.25 3.02  
Year to date precipitation 16.91 13.88  
Snow  
Snow 0.00 in - 0.00 in ()
Month to date snowfall 0.0  
Since 1 June snowfall 0.0  
Since 1 July snowfall 0.0  
Snow Depth 0.00 in    
Sea Level Pressure  
Sea Level Pressure 29.92 in    
Wind  
Wind Speed 7 mph (NE)    
Max Wind Speed 17 mph    
Max Gust Speed 21 mph    
Visibility 10 miles    
Events      
T = Trace of Precipitation, MM = Missing Value Source: NWS Daily Summary

Daily Weather History Graph

Daily Weather History Graph

Search for Another Location

Airport or City:

Trip Planner

Search our weather history database for the weather conditions in past years. The results will help you decide how hot, cold, wet, or windy it might be!

Date:

Astronomy

Jul. 30, 2012 Rise Set
Actual Time 6:19 AM CDT 8:57 PM CDT
Civil Twilight 5:46 AM CDT 9:29 PM CDT
Nautical Twilight 5:04 AM CDT 10:11 PM CDT
Astronomical Twilight 4:17 AM CDT 10:58 PM CDT
Moon 7:00 PM CDT (7/30) 3:34 AM CDT (7/30)
Length of Visible Light 15h 43m
Length of Day
14h 37m
Waxing Gibbous, 92% of the Moon is Illuminated
Jul 30
Waxing Gibbous
Aug 1
Full
Aug 9
Last Quarter
Aug 17
New
Aug 24
First Quarter

Hourly Weather History & Observations

Time (CDT) Temp. Heat Index Dew Point Humidity Pressure Visibility Wind Dir Wind Speed Gust Speed Precip Events Conditions
12:53 AM 79.0 °F - 66.9 °F 66% 29.88 in 10.0 mi South 9.2 mph - N/A   Clear
1:53 AM 78.1 °F - 68.0 °F 71% 29.87 in 10.0 mi South 10.4 mph - N/A   Clear
2:53 AM 75.9 °F - 68.0 °F 76% 29.88 in 10.0 mi South 9.2 mph - N/A   Clear
3:53 AM 73.9 °F - 66.9 °F 79% 29.89 in 10.0 mi South 3.5 mph - N/A   Clear
4:53 AM 71.1 °F - 66.9 °F 87% 29.91 in 10.0 mi NE 10.4 mph 18.4 mph N/A   Clear
5:53 AM 70.0 °F - 66.9 °F 90% 29.92 in 9.0 mi Calm Calm - N/A   Clear
6:53 AM 69.1 °F - 66.9 °F 93% 29.92 in 4.0 mi East 4.6 mph - N/A   Clear
7:53 AM 72.0 °F - 68.0 °F 87% 29.92 in 9.0 mi South 8.1 mph - N/A   Clear
8:53 AM 78.1 °F - 69.1 °F 74% 29.91 in 10.0 mi South 8.1 mph - N/A   Clear
9:53 AM 82.0 °F 84.5 °F 66.9 °F 60% 29.91 in 10.0 mi Variable 3.5 mph - N/A   Clear
10:53 AM 84.9 °F 87.1 °F 66.0 °F 53% 29.91 in 10.0 mi West 5.8 mph - N/A   Clear
11:53 AM 88.0 °F 90.7 °F 66.9 °F 49% 29.92 in 10.0 mi Calm Calm - N/A   Clear
12:53 PM 91.0 °F 95.6 °F 69.1 °F 48% 29.93 in 10.0 mi North 11.5 mph - N/A   Clear
1:53 PM 91.9 °F 94.1 °F 64.9 °F 41% 29.93 in 10.0 mi North 8.1 mph 18.4 mph N/A   Clear
2:53 PM 93.0 °F 94.2 °F 63.0 °F 37% 29.92 in 10.0 mi North 11.5 mph 18.4 mph N/A   Clear
3:53 PM 93.9 °F 93.2 °F 59.0 °F 31% 29.91 in 10.0 mi NNE 3.5 mph - N/A   Clear
4:53 PM 93.0 °F 91.7 °F 57.0 °F 30% 29.91 in 10.0 mi North 11.5 mph - N/A   Clear
5:53 PM 91.9 °F 90.6 °F 57.0 °F 31% 29.91 in 10.0 mi North 10.4 mph - N/A   Clear
6:53 PM 90.0 °F 90.0 °F 61.0 °F 38% 29.92 in 10.0 mi NE 12.7 mph - N/A   Clear
7:53 PM 86.0 °F 85.7 °F 60.1 °F 41% 29.92 in 10.0 mi NNE 8.1 mph - N/A   Clear
8:53 PM 77.0 °F - 60.1 °F 56% 29.94 in 10.0 mi NNE 5.8 mph - N/A   Clear
9:53 PM 75.9 °F - 61.0 °F 60% 29.96 in 10.0 mi NNE 3.5 mph - N/A   Clear
10:53 PM 69.1 °F - 61.0 °F 75% 29.98 in 10.0 mi NE 4.6 mph - N/A   Clear
11:53 PM 69.1 °F - 60.1 °F 73% 29.97 in 10.0 mi NE 9.2 mph - N/A   Clear